Showing default

OPS 7202 (DMSP 4A F3), 2920

Orbit data source: Space-Track

OPS 7202 (DMSP 4A F3), 2920 is a payload satellite owned by SAMSO (US) in SSO that was launched on Wed, 23 Aug 1967 UTC via a THOR BURNER 2 launch vehicle from the Air Force Western Test Range (AFWTR). Payloads include a variety of satellites, spacecraft, and rockets equipped with specific instruments for various scientific and technological missions. These include communications satellites like Starlink; space stations such as the ISS; scientific satellites like the Hubble; Earth observation satellites from companies like Planet Labs, Umbra, and HawkEye 360; GPS; miniature CubeSats for education and research; and military/defense satellites.

Loading next visibility...
OPS 7202 (DMSP 4A F3) details
Identifier
2920, 1967-080A
Orbit
SSO
Last TLE update23 hours ago
Origin
Flag of USSAMSO (US)
ManufacturerRCA/East Windsor
MissionNon-operational Defense Weather
Bus & MotorDMSP BLOCK 4A, Unknown motor
Mass79 kg wet, 79 kg dry
Launch date (UTC)
1967-08-23 (57 years ago)
Launch vehicle
THOR BURNER 2
Launch site
Air Force Western Test Range (AFWTR)
Object type
Payload
Rocket body
Debris
Shape & HBROct Cyl, 0.8 m
Radar Cross Section0.655 m², Medium (>0.1 m² and < 1m²)

Expand to show TLE details & history

TLE from 23 hours ago
0 OPS 7202 (DMSP 4A F3)
1 02920U 67080A   25035.55218829  .00000184  00000-0  11584-3 0  9994
2 02920  98.6474 257.3383 0037781 345.1752  14.8311 14.15166265962313
Epoch: 2025-02-04T13:15Z
Definitive object data (Epoch: 2025-02-04T13:15:09.068Z)
Latitude-0.00004°
Longitude-76.40532°
Altitude818.289 km
Speed7.458 km/s
True Right ascension17h 09m 21s
True Declination0° 00' 00"
Sunlit
Object was in daylight at TLE epoch
Visualization TLE readout
Latitude66.13744°
Longitude124.50513°
Altitude870.594 km
Speed7.414 km/s
Apparent Right ascension03h 33m 36s
Apparent Declination21° 14' 32"
Sunlit
Object is in full shadow
Visualization observer readout
Local Sidereal Time13:53:27
Azimuth334.305° NNW
Elevation-24.533°
Doppler factor1
Orbital elements
Apogee altitude866.175 km
Perigee altitude811.642 km
Semi-major axis7,217.046 km
Eccentricity0.0037781
Inclination98.6474°
RAAN257.3383°
Arg. of periapsis345.1752°
True anomaly14.94243°
Mean anomaly14.8311°
Eccentric anomaly14.88671°
Mean motion3.54001 °/min
BSTAR0.00011584
Orbital period101.69 mins
Loading maneuver chart data...
Loading historical data...
Loading historical data...
Loading historical data...
Loading historical data...
Loading historical data...
Loading historical data...
Loading historical data...
Other satellites on launch #80 in the year 1967 (1967-08-23 UTC)

OPS 7202 (DMSP 4A F3) Visibility forecast

Observer location: undefined°, undefined

Span
Click to sort rows by Start time (UTC) header in descending order
Start Az.
Max El. time (UTC)
Max El. Az.
Max El.
End time (UTC)
End Az.
5 mins2025-02-05 13:11:24.302Z87.819° E2025-02-05 13:13:24.302Z63.513° ENE15.235°2025-02-05 13:16:24.302Z28.078° NE
9 mins2025-02-05 14:49:24.302Z176.2° S2025-02-05 14:53:24.302Z248.651° W43.131°2025-02-05 14:58:24.302Z340.994° N
9 mins2025-02-06 03:10:24.302Z26.173° NE2025-02-06 03:14:24.302Z86.953° E39.182°2025-02-06 03:19:24.302Z176.07° S
6 mins2025-02-06 04:52:24.302Z328.724° NNW2025-02-06 04:54:24.302Z302.604° NW19.396°2025-02-06 04:58:24.302Z253.53° W
|